Regional Weather Roundup
Issued by NWS

Home | Current Version | Previous Version | Text Only | Print | Product List | Glossary On
Versions: 1 2 3 4 5 6 7 8 9 10 11 12 13 14 15 16 17 18 19 20 21 22 23 24 25 26 27 28 29 30 31 32 33 34 35 36 37 38 39 40 41 42 43 44 45 46 47 48 49 50
000
ASUS45 KABQ 260910
RWRNM
NEW MEXICO REGIONAL WEATHER ROUNDUP
NATIONAL WEATHER SERVICE ALBUQUERQUE NM
300 AM MDT SUN MAR 26 2017

NOTE: "FAIR" MEANS FEW OR NO CLOUDS BELOW 12,000 FEET AGL WITH NO
       SIGNIFICANT WEATHER OR OBSTRUCTIONS TO VISION.

      THIS PRODUCT IS RELEASED AS TWO VERSIONS.  ONE VERSION NEAR
      THE TOP OF THE HOUR CONTAINING PRELIMINARY DATA FROM ALBUQUERQUE
      AND OTHER STATIONS.  A FINAL VERSION WITH ADDITIONAL DATA IS
      ISSUED ABOUT 10 MINUTES AFTER THE HOUR.

NMZ501-503-504-510>518-261000-
NORTHWEST PLATEAU/NORTHCENTRAL MOUNTAINS

CITY           SKY/WX    TMP DP  RH WIND       PRES   REMARKS
FARMINGTON     MOCLDY    41  38  89 CALM      29.92F
LOS ALAMOS     MOCLDY    40  28  63 CALM      29.92F
SANTA FE       MOCLDY    41  31  67 W8        29.92S
TAOS             N/A     37  28  70 SW9       29.89F WCI  31
ANGEL FIRE     LGT SNOW  32  29  90 S3        29.88F

$$
NMZ402-403-502-505>509-261000-
WESTCENTRAL MOUNTAINS/SOUTHWEST MOUNTAINS

CITY           SKY/WX    TMP DP  RH WIND       PRES   REMARKS
GALLUP         FAIR      36  32  85 S6        29.98S WCI  31
GRANTS         MOCLDY    35  30  81 NW5       29.99S WCI  31
SILVER CITY    FAIR      46  26  47 NW10      29.96S

$$
NMZ407-409-411-412-261000-
SOUTHERN DESERTS

CITY           SKY/WX    TMP DP  RH WIND       PRES   REMARKS
DEMING         FAIR      53  26  35 SW8       29.93S
LAS CRUCES     FAIR      55  22  28 NW7       29.93F
HOLLOMAN AFB   FAIR      56  19  23 N6        29.93R
ALAMOGORDO     FAIR      61  18  18 N12       29.90S
T OR C         FAIR      55  24  30 NW9       29.92S

$$
NMZ519>523-261000-
CENTRAL VALLEYS/CENTRAL HIGHLANDS

CITY           SKY/WX    TMP DP  RH WIND       PRES   REMARKS
ALBUQUERQUE    FAIR      46  31  55 CALM      29.95F
MORIARTY ARPT  FAIR      42  29  60 W10       29.94S
CLINES CORNERS FAIR      37  26  64 W17       29.93F WCI  27
BELEN          FAIR      41  28  59 CALM      29.96F
SOCORRO        FAIR      48  29  47 N7        29.95S

$$
NMZ524>526-539-540-261000-
SOUTHCENTRAL MOUNTAINS

CITY           SKY/WX    TMP DP  RH WIND       PRES   REMARKS
RUIDOSO        FAIR      45  23  42 NW22G32   29.94S

$$
NMZ527>531-261000-
NORTHEAST HIGHLANDS/NORTHEAST PLAINS

CITY           SKY/WX    TMP DP  RH WIND       PRES   REMARKS
LAS VEGAS      FAIR      41  27  57 SW20G28   29.82F
RATON          FAIR      41  29  62 S6        29.78F
CLAYTON        FAIR      38  32  79 W9        29.75F WCI  31

$$
NMZ532>537-261000-
EASTCENTRAL PLAINS

CITY           SKY/WX    TMP DP  RH WIND       PRES   REMARKS
TUCUMCARI      FAIR      55  26  32 W10       29.74F
CANNON AFB     FAIR      56  24  29 SW15      29.81R
CLOVIS AIRPORT FAIR      48  27  43 NW21      29.83R

$$
NMZ028-029-538-261000-
SOUTHEAST PLAINS

CITY           SKY/WX    TMP DP  RH WIND       PRES   REMARKS
ROSWELL        FAIR      55  23  28 NW13        N/A
ARTESIA        FAIR      52  27  37 S9        29.81S
CARLSBAD       FAIR      48  26  42 SW3       29.79F
HOBBS          FAIR      50  25  37 S8        29.83F


$$



USA.gov is the U.S. government's official web portal to all federal, state and local government web resources and services.